Weather History for Kahului, HI

Change the Weather History Date:

Sunday, May 29, 2011

  Actual Average Record
Temperature  
Mean Temperature 76 °F 77 °F  
Max Temperature 85 °F 85 °F 92 °F (1992)
Min Temperature 67 °F 68 °F 60 °F (1979)
Degree Days  
Heating Degree Days 0 0  
Month to date heating degree days 0 0  
Since 1 July heating degree days 0 0  
Cooling Degree Days 11 12  
Month to date cooling degree days 337 311  
Year to date cooling degree days 1380 1237  
Growing Degree Days 25 (Base 50)    
Moisture  
Dew Point 63 °F    
Average Humidity 63    
Maximum Humidity 78    
Minimum Humidity 47    
Precipitation  
Precipitation 0.01 in 0.01 in 0.06 in (1978)
Month to date precipitation 1.32 0.72  
Year to date precipitation 9.25 9.48  
Snow  
Snow 0.00 in - - ()
Month to date snowfall 0.0  
Since 1 July snowfall 0.0  
Snow Depth 0.00 in    
Sea Level Pressure  
Sea Level Pressure 30.13 in    
Wind  
Wind Speed 15 mph (ENE)    
Max Wind Speed 29 mph    
Max Gust Speed 39 mph    
Visibility 10 miles    
Events      
T = Trace of Precipitation, MM = Missing Value Source: NWS Daily Summary

Daily Weather History Graph

Daily Weather History Graph

Search for Another Location

Airport:

Trip Planner

Search our weather history database for the weather conditions in past years. The results will help you decide how hot, cold, wet, or windy it might be!

Date:

Astronomy

May. 29, 2011 Rise Set
Actual Time 5:44 AM HST 7:02 PM HST
Civil Twilight 5:20 AM HST 7:26 PM HST
Nautical Twilight 4:51 AM HST 7:55 PM HST
Astronomical Twilight 4:21 AM HST 8:25 PM HST
Moon 3:20 AM HST (5/29) 4:35 PM HST (5/29)
Length of Visible Light 14h 06m
Length of Day
13h 17m
Waning Crescent, 9% of the Moon is Illuminated
May 29
Waning Crescent
Jun 1
New
Jun 8
First Quarter
Jun 15
Full
Jun 23
Last Quarter

Hourly Weather History & Observations

Time (HST) Temp. Heat Index Dew Point Humidity Pressure Visibility Wind Dir Wind Speed Gust Speed Precip Events Conditions
12:54 AM 72.0 °F - 63.0 °F 73% 30.13 in 10.0 mi East 11.5 mph 24.2 mph N/A   Partly Cloudy
1:54 AM 73.0 °F - 61.0 °F 66% 30.11 in 10.0 mi East 6.9 mph - N/A   Clear
2:54 AM 68.0 °F - 60.1 °F 76% 30.12 in 10.0 mi SE 5.8 mph - N/A   Clear
3:54 AM 69.1 °F - 62.1 °F 78% 30.12 in 10.0 mi SE 3.5 mph - N/A   Partly Cloudy
4:54 AM 70.0 °F - 61.0 °F 73% 30.12 in 10.0 mi Calm Calm - N/A   Scattered Clouds
5:54 AM 73.0 °F - 62.1 °F 68% 30.13 in 10.0 mi East 8.1 mph 20.7 mph N/A   Scattered Clouds
6:54 AM 73.9 °F - 62.1 °F 66% 30.13 in 10.0 mi ENE 17.3 mph 26.5 mph N/A   Partly Cloudy
7:54 AM 75.9 °F - 64.0 °F 67% 30.14 in 10.0 mi NE 19.6 mph 27.6 mph N/A   Partly Cloudy
8:54 AM 79.0 °F - 64.0 °F 60% 30.15 in 10.0 mi NE 19.6 mph 25.3 mph N/A   Partly Cloudy
9:54 AM 79.0 °F - 64.9 °F 62% 30.16 in 10.0 mi ENE 23.0 mph 32.2 mph N/A   Partly Cloudy
10:54 AM 82.0 °F 82.4 °F 60.1 °F 47% 30.16 in 10.0 mi ENE 23.0 mph 33.4 mph N/A   Scattered Clouds
11:54 AM 82.9 °F 84.0 °F 63.0 °F 51% 30.15 in 10.0 mi NE 24.2 mph 32.2 mph N/A   Scattered Clouds
12:54 PM 81.0 °F 81.7 °F 61.0 °F 50% 30.14 in 10.0 mi ENE 24.2 mph 38.0 mph 0.01 in   Scattered Clouds
1:54 PM 82.0 °F 83.1 °F 63.0 °F 52% 30.12 in 10.0 mi ENE 21.9 mph 33.4 mph N/A   Partly Cloudy
2:54 PM 82.9 °F 83.7 °F 62.1 °F 49% 30.10 in 10.0 mi ENE 20.7 mph 35.7 mph N/A   Scattered Clouds
3:54 PM 82.0 °F 83.4 °F 64.0 °F 54% 30.09 in 10.0 mi ENE 25.3 mph 33.4 mph N/A   Scattered Clouds
4:54 PM 80.1 °F 81.1 °F 61.0 °F 52% 30.09 in 10.0 mi ENE 23.0 mph 32.2 mph N/A   Scattered Clouds
5:54 PM 77.0 °F - 62.1 °F 60% 30.11 in 10.0 mi ENE 16.1 mph 28.8 mph N/A   Scattered Clouds
6:54 PM 75.0 °F - 63.0 °F 66% 30.13 in 10.0 mi NE 17.3 mph 27.6 mph N/A   Scattered Clouds
7:54 PM 73.9 °F - 63.0 °F 68% 30.14 in 10.0 mi NE 18.4 mph 28.8 mph N/A   Clear
8:54 PM 73.9 °F - 63.0 °F 68% 30.16 in 10.0 mi NE 16.1 mph - N/A   Clear
9:54 PM 73.9 °F - 64.0 °F 71% 30.17 in 10.0 mi NE 19.6 mph 28.8 mph N/A   Clear
10:54 PM 73.0 °F - 66.0 °F 79% 30.17 in 10.0 mi NE 21.9 mph 28.8 mph N/A   Scattered Clouds
11:54 PM 73.0 °F - 64.0 °F 73% 30.15 in 10.0 mi ENE 16.1 mph 28.8 mph N/A   Partly Cloudy